CW3094 Weather Reports


time (UTC)temp
C
wind
direction
speed
KPH
gust
KPH
rain 1hr
cm
rain 24hr
cm
rain mn
cm
humidity
%
barometer
mb
20260506201900 15 244 8.0 11.3 0.13 0.43 0.43 96 1005.0
20260506201400 14 258 9.7 16.1 0.15 0.43 0.43 96 1005.1
20260506200900 14 240 9.7 14.5 0.15 0.43 0.43 96 1005.2
20260506200400 14 245 4.8 12.9 0.15 0.41 0.41 96 1005.2
20260506195900 14 250 4.8 12.9 0.15 0.41 0.41 96 1005.2
20260506195401 14 249 8.0 16.1 0.15 0.41 0.41 96 1005.4
20260506194400 14 242 6.4 11.3 0.10 0.36 0.36 96 1005.5
20260506193859 14 236 8.0 11.3 0.08 0.33 0.33 96 1005.4
20260506193400 14 239 8.0 12.9 0.05 0.30 0.30 95 1005.5
20260506192900 14 257 6.4 9.7 0.05 0.30 0.30 95 1005.6
20260506192400 14 252 8.0 11.3 0.05 0.30 0.30 95 1005.6
20260506191900 14 244 4.8 11.3 0.05 0.30 0.30 95 1005.7
20260506190900 14 240 3.2 12.9 0.05 0.28 0.28 95 1005.7
20260506190400 15 237 4.8 12.9 0.03 0.25 0.25 95 1005.8
20260506185900 15 236 9.7 19.3 0.03 0.25 0.25 95 1005.8
20260506185400 15 225 4.8 12.9 0.05 0.25 0.25 94 1005.9
20260506184900 15 236 9.7 14.5 0.05 0.25 0.25 95 1005.9
20260506184359 15 258 4.8 12.9 0.05 0.25 0.25 95 1006.0
20260506183900 15 244 4.8 9.7 0.05 0.25 0.25 95 1006.0
20260506182900 15 229 8.0 12.9 0.08 0.25 0.25 94 1006.1
20260506182400 15 236 8.0 14.5 0.10 0.25 0.25 94 1006.2
20260506181900 15 239 4.8 12.9 0.13 0.25 0.25 94 1006.1
20260506181400 15 180 4.8 12.9 0.10 0.23 0.23 94 1006.1
20260506180359 15 264 4.8 11.3 0.15 0.23 0.23 93 1006.0
20260506175900 15 236 4.8 12.9 0.18 0.23 0.23 93 1006.1
20260506175400 15 250 3.2 9.7 0.18 0.20 0.20 93 1006.2
20260506174900 15 258 4.8 14.5 0.20 0.20 0.20 92 1006.2
20260506174400 15 250 6.4 12.9 0.20 0.20 0.20 92 1006.1
20260506173900 15 251 3.2 8.0 0.20 0.20 0.20 92 1006.0
20260506172400 16 266 1.6 8.0 0.15 0.15 0.15 91 1006.5
20260506171900 16 150 3.2 8.0 0.13 0.13 0.13 90 1006.8
20260506171359 16 193 3.2 11.3 0.13 0.13 0.13 89 1006.6
20260506170900 16 214 3.2 8.0 0.08 0.08 0.08 88 1007.0
20260506170400 16 245 1.6 8.0 0.08 0.08 0.08 86 1007.1
20260506165900 16 240 4.8 8.0 0.05 0.05 0.05 86 1007.3
20260506165400 17 236 6.4 12.9 0.03 0.03 0.03 83 1007.5
20260506164400 17 255 8.0 11.3 0.00 0.00 0.00 81 1007.4
20260506163359 17 247 8.0 11.3 0.00 0.00 0.00 80 1007.4
20260506162900 17 242 8.0 14.5 0.00 0.00 0.00 79 1007.3
20260506162400 17 230 3.2 8.0 0.00 0.00 0.00 79 1007.3
20260506161859 18 256 4.8 9.7 0.00 0.00 0.00 78 1007.4
20260506160900 18 239 9.7 16.1 0.00 0.00 0.00 74 1007.2
20260506160400 18 243 4.8 12.9 0.00 0.00 0.00 73 1007.4
20260506155900 18 208 8.0 12.9 0.00 0.00 0.00 73 1007.5
20260506155400 18 232 8.0 12.9 0.00 0.00 0.00 73 1007.5
20260506154900 18 232 4.8 11.3 0.00 0.00 0.00 72 1007.6
20260506154400 18 240 8.0 12.9 0.00 0.00 0.00 74 1007.8
20260506153900 18 273 8.0 12.9 0.00 0.00 0.00 75 1007.9
20260506152900 18 235 6.4 11.3 0.00 0.00 0.00 75 1008.0
20260506152400 18 242 9.7 20.9 0.00 0.00 0.00 74 1007.9
20260506151900 18 260 9.7 14.5 0.00 0.00 0.00 74 1007.9
20260506151359 18 241 8.0 12.9 0.00 0.00 0.00 75 1008.0
20260506150400 18 218 9.7 12.9 0.00 0.00 0.00 74 1008.0
20260506145901 18 216 6.4 16.1 0.00 0.00 0.00 74 1008.0
20260506143900 17 240 8.0 14.5 0.00 0.00 0.00 76 1008.2
20260506143400 17 259 8.0 9.7 0.00 0.00 0.00 77 1008.2
20260506142900 17 242 9.7 19.3 0.00 0.00 0.00 77 1008.3
20260506142359 17 234 9.7 14.5 0.00 0.00 0.00 78 1008.4
20260506141400 17 235 8.0 16.1 0.00 0.00 0.00 78 1008.3
20260506140859 17 247 6.4 14.5 0.00 0.00 0.00 79 1008.3
20260506140359 17 226 8.0 16.1 0.00 0.00 0.00 79 1008.2
20260506135900 16 259 8.0 16.1 0.00 0.00 0.00 82 1008.2
20260506135400 16 246 6.4 12.9 0.00 0.00 0.00 82 1008.2
20260506134900 16 248 8.0 12.9 0.00 0.00 0.00 81 1008.2
20260506133900 16 244 4.8 11.3 0.00 0.00 0.00 83 1008.2
20260506133400 16 220 4.8 11.3 0.00 0.00 0.00 83 1008.1
20260506132900 16 266 6.4 11.3 0.00 0.00 0.00 84 1008.2
20260506131900 16 236 4.8 9.7 0.00 0.00 0.00 84 1008.1
20260506131401 15 250 4.8 11.3 0.00 0.00 0.00 84 1008.2
20260506130900 15 269 6.4 9.7 0.00 0.00 0.00 85 1008.3
20260506125900 15 257 9.7 16.1 0.00 0.00 0.00 85 1008.4
20260506125400 15 274 8.0 12.9 0.00 0.00 0.00 85 1008.3
20260506124900 15 244 8.0 12.9 0.00 0.00 0.00 86 1008.3
20260506123900 15 224 3.2 14.5 0.00 0.00 0.00 86 1008.3
20260506123400 15 261 8.0 16.1 0.00 0.00 0.00 86 1008.6
20260506122901 15 253 8.0 12.9 0.00 0.00 0.00 87 1008.6
20260506122359 15 228 8.0 12.9 0.00 0.00 0.00 87 1008.7
20260506121900 15 253 6.4 12.9 0.00 0.00 0.00 87 1008.6
20260506121400 15 250 9.7 12.9 0.00 0.00 0.00 88 1008.7
20260506120900 15 255 9.7 14.5 0.00 0.00 0.00 88 1008.6
20260506120400 15 249 4.8 12.9 0.00 0.00 0.00 88 1008.5
20260506115900 14 242 4.8 12.9 0.00 0.00 0.00 89 1008.5
20260506115400 14 247 6.4 14.5 0.00 0.00 0.00 89 1008.4
20260506114900 14 240 9.7 14.5 0.00 0.00 0.00 89 1008.5
20260506114403 14 228 8.0 14.5 0.00 0.00 0.00 89 1008.6
20260506113900 14 239 6.4 14.5 0.00 0.00 0.00 90 1008.5
20260506113400 14 241 8.0 12.9 0.00 0.00 0.00 90 1008.5
20260506112900 14 260 8.0 16.1 0.00 0.00 0.00 90 1008.7
20260506112400 13 280 8.0 12.9 0.00 0.00 0.00 91 1008.7
20260506111901 13 267 4.8 19.3 0.00 0.00 0.00 91 1008.6
20260506110400 13 262 4.8 9.7 0.00 0.00 0.00 92 1008.5
20260506105900 13 257 3.2 12.9 0.00 0.00 0.00 93 1008.6
20260506104900 13 240 4.8 8.0 0.00 0.00 0.00 94 1008.8
20260506104401 12 243 4.8 9.7 0.00 0.00 0.00 94 1008.7
20260506103900 12 232 6.4 9.7 0.00 0.00 0.00 94 1008.6
20260506103401 12 247 4.8 9.7 0.00 0.00 0.00 94 1008.6
20260506101900 12 245 4.8 9.7 0.00 0.00 0.00 93 1008.6
20260506101400 12 255 4.8 9.7 0.00 0.00 0.00 94 1008.5
20260506100900 12 233 4.8 9.7 0.00 0.00 0.00 93 1008.3
20260506100401 12 262 4.8 9.7 0.00 0.00 0.00 93 1008.3
20260506095900 12 256 4.8 9.7 0.00 0.00 0.00 93 1008.4
20260506095400 12 253 4.8 11.3 0.00 0.00 0.00 92 1008.4
20260506094859 12 261 3.2 12.9 0.00 0.00 0.00 92 1008.3
20260506094401 12 260 6.4 9.7 0.00 0.00 0.00 92 1008.3
20260506093400 12 235 3.2 11.3 0.00 0.00 0.00 91 1008.2
20260506092400 12 232 3.2 8.0 0.00 0.00 0.00 90 1008.2
20260506091401 12 243 6.4 14.5 0.00 0.00 0.00 90 1008.2
20260506090900 13 252 6.4 14.5 0.00 0.00 0.00 90 1008.2
20260506090401 13 228 6.4 12.9 0.00 0.00 0.00 90 1008.3
20260506085900 13 254 4.8 16.1 0.00 0.00 0.00 89 1008.2
20260506085400 13 247 8.0 12.9 0.00 0.00 0.00 89 1008.3
20260506084900 13 247 8.0 12.9 0.00 0.00 0.00 88 1008.3
20260506083900 13 248 8.0 14.5 0.00 0.00 0.00 88 1008.2
20260506083401 13 259 6.4 11.3 0.00 0.00 0.00 88 1008.2
20260506082900 13 239 6.4 14.5 0.00 0.00 0.00 88 1008.3
20260506082400 13 240 8.0 14.5 0.00 0.00 0.00 87 1008.3
20260506081900 13 253 8.0 14.5 0.00 0.00 0.00 87 1008.3
20260506081400 13 247 4.8 9.7 0.00 0.00 0.00 87 1008.3
20260506080900 13 239 4.8 9.7 0.00 0.00 0.00 87 1008.3
20260506080400 13 248 4.8 8.0 0.00 0.00 0.00 87 1008.3
20260506073400 13 218 6.4 9.7 0.00 0.00 0.00 85 1008.4
20260506072900 13 203 4.8 8.0 0.00 0.00 0.00 84 1008.3
20260506072400 13 228 4.8 9.7 0.00 0.00 0.00 84 1008.4
20260506071901 13 247 4.8 11.3 0.00 0.00 0.00 84 1008.4
20260506070901 13 253 6.4 9.7 0.00 0.00 0.00 83 1008.4
20260506070400 13 254 4.8 11.3 0.00 0.00 0.00 83 1008.3
20260506061900 15 261 8.0 9.7 0.00 0.00 0.00 78 1008.3
20260506061401 15 251 8.0 12.9 0.00 0.00 0.00 78 1008.3
20260506060900 15 241 8.0 11.3 0.00 0.00 0.00 78 1008.2
20260506051401 15 246 9.7 19.3 0.00 0.00 0.00 74 1008.5
20260506050900 15 248 9.7 14.5 0.00 0.00 0.00 74 1008.5
20260506050401 15 232 9.7 14.5 0.00 0.00 0.00 74 1008.6
20260506044400 16 254 9.7 14.5 0.00 0.00 0.00 73 1008.5
20260506043901 16 244 9.7 14.5 0.00 0.00 0.00 73 1008.6
20260506042901 16 245 8.0 14.5 0.00 0.00 0.00 72 1008.6
20260506041401 16 257 9.7 14.5 0.00 0.00 0.00 72 1008.6
20260506040901 16 249 9.7 12.9 0.00 0.00 0.00 72 1008.6
20260506034901 16 262 8.0 16.1 0.00 0.00 0.00 71 1008.6
20260506034403 16 258 9.7 14.5 0.00 0.00 0.00 71 1008.5
20260506033901 16 258 9.7 14.5 0.00 0.00 0.00 71 1008.6
20260506033400 16 262 9.7 14.5 0.00 0.00 0.00 71 1008.6
20260506032400 16 248 8.0 11.3 0.00 0.00 0.00 70 1008.6
20260506031901 16 253 9.7 16.1 0.00 0.00 0.00 70 1008.6
20260506031401 16 245 9.7 16.1 0.00 0.00 0.00 70 1008.5
20260506030900 16 251 9.7 12.9 0.00 0.00 0.00 70 1008.5
20260506030400 16 246 9.7 14.5 0.00 0.00 0.00 69 1008.5
20260506025901 16 247 9.7 20.9 0.00 0.00 0.00 69 1008.4
20260506025401 16 249 9.7 14.5 0.00 0.00 0.00 69 1008.4
20260506024901 16 242 8.0 14.5 0.00 0.00 0.00 69 1008.4
20260506023900 16 250 8.0 12.9 0.00 0.00 0.00 68 1008.4
20260506023400 16 251 8.0 12.9 0.00 0.00 0.00 68 1008.4
20260506022901 16 232 6.4 11.3 0.00 0.00 0.00 68 1008.4
20260506022401 16 247 8.0 12.9 0.00 0.00 0.00 69 1008.3
20260506021900 16 265 8.0 12.9 0.00 0.00 0.00 69 1008.3
20260506021400 16 245 4.8 9.7 0.00 0.00 0.00 69 1008.3
20260506020900 16 238 4.8 12.9 0.00 0.00 0.00 70 1008.3
20260506020401 16 245 4.8 12.9 0.00 0.00 0.00 70 1008.2
20260506015901 16 237 6.4 14.5 0.00 0.00 0.00 69 1008.3
20260506014900 16 243 4.8 8.0 0.00 0.00 0.00 69 1008.3
20260506014400 16 214 1.6 8.0 0.00 0.00 0.00 69 1008.3
20260506013400 16 244 4.8 8.0 0.00 0.00 0.00 69 1008.3
20260506012901 16 235 4.8 8.0 0.00 0.00 0.00 68 1008.2
20260506012401 17 243 4.8 9.7 0.00 0.00 0.00 68 1008.2
20260506011900 17 239 4.8 8.0 0.00 0.00 0.00 67 1008.1
20260506011400 17 247 4.8 9.7 0.00 0.00 0.00 66 1008.1
20260506010901 17 247 4.8 9.7 0.00 0.00 0.00 66 1008.1
20260506010401 17 247 6.4 14.5 0.00 0.00 0.00 65 1008.0
20260506005401 17 236 8.0 14.5 0.00 0.00 0.00 64 1007.9
20260506004902 17 245 8.0 14.5 0.00 0.00 0.00 65 1007.8
20260506004401 17 247 6.4 11.3 0.00 0.00 0.00 66 1007.8
20260506003900 17 252 4.8 9.7 0.00 0.00 0.00 65 1007.6
20260506003401 17 259 4.8 9.7 0.00 0.00 0.00 64 1007.5
20260506002900 17 229 6.4 9.7 0.00 0.00 0.00 64 1007.4
20260506002400 17 225 4.8 11.3 0.00 0.00 0.00 63 1007.3
20260506001901 18 223 3.2 12.9 0.00 0.00 0.00 63 1007.3
20260506001401 18 243 6.4 14.5 0.00 0.00 0.00 62 1007.2
20260506000901 18 224 6.4 14.5 0.00 0.00 0.00 62 1007.1
20260506000401 18 245 4.8 9.7 0.00 0.00 0.00 61 1007.0
20260505235901 18 237 6.4 11.3 0.00 0.00 0.00 60 1006.9
20260505235401 18 233 8.0 12.9 0.00 0.00 0.00 60 1006.7
20260505234901 18 247 8.0 14.5 0.00 0.00 0.00 60 1006.7
20260505234401 18 234 6.4 11.3 0.00 0.00 0.00 59 1006.7
20260505233901 19 261 8.0 12.9 0.00 0.00 0.00 58 1006.6
20260505233401 19 236 6.4 11.3 0.00 0.00 0.00 58 1006.7
20260505232900 19 239 8.0 14.5 0.00 0.00 0.00 58 1006.6
20260505232401 19 223 6.4 14.5 0.00 0.00 0.00 58 1006.5
20260505231901 20 218 4.8 11.3 0.00 0.00 0.00 57 1006.4
20260505231400 20 229 8.0 19.3 0.00 0.00 0.00 58 1006.3
20260505230401 20 235 4.8 9.7 0.00 0.00 0.00 56 1006.3
20260505225901 20 248 4.8 9.7 0.00 0.00 0.00 55 1006.2
20260505225400 21 252 4.8 8.0 0.00 0.00 0.00 54 1006.2
20260505224901 21 202 4.8 11.3 0.00 0.00 0.00 53 1006.1
20260505224400 21 226 6.4 14.5 0.00 0.00 0.00 52 1006.0
20260505223901 21 238 8.0 12.9 0.00 0.00 0.00 51 1005.9
20260505223401 21 253 8.0 12.9 0.00 0.00 0.00 51 1005.9
20260505222901 22 230 8.0 19.3 0.00 0.00 0.00 51 1005.8
20260505221901 22 250 4.8 11.3 0.00 0.00 0.00 51 1005.8
20260505221400 22 250 6.4 14.5 0.00 0.00 0.00 50 1005.9
20260505220901 22 237 9.7 19.3 0.00 0.00 0.00 49 1005.7
20260505220401 22 249 4.8 12.9 0.00 0.00 0.00 49 1005.6
20260505215901 22 249 8.0 16.1 0.00 0.00 0.00 48 1005.5
20260505215400 23 247 9.7 19.3 0.00 0.00 0.00 48 1005.6
20260505214900 23 255 8.0 12.9 0.00 0.00 0.00 48 1005.7
20260505214401 23 235 11.3 14.5 0.00 0.00 0.00 47 1005.8
20260505213901 23 253 9.7 12.9 0.00 0.00 0.00 48 1005.9
20260505212900 23 229 8.0 12.9 0.00 0.00 0.00 46 1005.9
20260505212400 23 249 8.0 20.9 0.00 0.00 0.00 46 1005.8
20260505211901 23 243 12.9 24.1 0.00 0.00 0.00 46 1005.8
20260505211400 23 229 8.0 19.3 0.00 0.00 0.00 46 1005.8
20260505210901 23 250 8.0 20.9 0.00 0.00 0.00 46 1005.8
20260505210401 23 243 8.0 22.5 0.00 0.00 0.00 47 1005.8
20260505205901 23 240 11.3 24.1 0.00 0.00 0.00 47 1005.8
20260505205400 23 254 11.3 19.3 0.00 0.00 0.00 46 1005.9
20260505204901 23 247 9.7 25.7 0.00 0.00 0.00 46 1005.8
20260505204401 23 250 11.3 19.3 0.00 0.00 0.00 45 1005.8
20260505203901 23 246 9.7 25.7 0.00 0.00 0.00 45 1005.8
20260505203401 24 240 9.7 25.7 0.00 0.00 0.00 46 1005.7